Index of /20260507/WXO-DD/model_gdps/15km/00/060
Name Last modified Size Description
Parent Directory -
20260507T00Z_MSC_GDPS_AbsoluteVorticity_IsbL-0200_LatLon0.15_PT060H.grib2 2026-05-07 04:16 1.2M
20260507T00Z_MSC_GDPS_AbsoluteVorticity_IsbL-0250_LatLon0.15_PT060H.grib2 2026-05-07 04:16 1.3M
20260507T00Z_MSC_GDPS_AbsoluteVorticity_IsbL-0500_LatLon0.15_PT060H.grib2 2026-05-07 04:16 1.2M
20260507T00Z_MSC_GDPS_AbsoluteVorticity_IsbL-0700_LatLon0.15_PT060H.grib2 2026-05-07 04:16 1.3M
20260507T00Z_MSC_GDPS_AbsoluteVorticity_IsbL-0850_LatLon0.15_PT060H.grib2 2026-05-07 04:16 1.6M
20260507T00Z_MSC_GDPS_AirTemp-Max_AGL-2m_LatLon0.15_PT060H.grib2 2026-05-07 04:16 732K
20260507T00Z_MSC_GDPS_AirTemp-Min_AGL-2m_LatLon0.15_PT060H.grib2 2026-05-07 04:16 784K
20260507T00Z_MSC_GDPS_AirTemp_AGL-120m_LatLon0.15_PT060H.grib2 2026-05-07 04:16 901K
20260507T00Z_MSC_GDPS_AirTemp_AGL-2m_LatLon0.15_PT060H.grib2 2026-05-07 04:16 1.0M
20260507T00Z_MSC_GDPS_AirTemp_AGL-40m_LatLon0.15_PT060H.grib2 2026-05-07 04:16 802K
20260507T00Z_MSC_GDPS_AirTemp_AGL-80m_LatLon0.15_PT060H.grib2 2026-05-07 04:16 790K
20260507T00Z_MSC_GDPS_AirTemp_IsbL-0001_LatLon0.15_PT060H.grib2 2026-05-07 04:16 666K
20260507T00Z_MSC_GDPS_AirTemp_IsbL-0005_LatLon0.15_PT060H.grib2 2026-05-07 04:16 539K
20260507T00Z_MSC_GDPS_AirTemp_IsbL-0010_LatLon0.15_PT060H.grib2 2026-05-07 04:16 706K
20260507T00Z_MSC_GDPS_AirTemp_IsbL-0020_LatLon0.15_PT060H.grib2 2026-05-07 04:16 791K
20260507T00Z_MSC_GDPS_AirTemp_IsbL-0030_LatLon0.15_PT060H.grib2 2026-05-07 04:16 842K
20260507T00Z_MSC_GDPS_AirTemp_IsbL-0050_LatLon0.15_PT060H.grib2 2026-05-07 04:16 892K
20260507T00Z_MSC_GDPS_AirTemp_IsbL-0100_LatLon0.15_PT060H.grib2 2026-05-07 04:16 968K
20260507T00Z_MSC_GDPS_AirTemp_IsbL-0150_LatLon0.15_PT060H.grib2 2026-05-07 04:16 1.0M
20260507T00Z_MSC_GDPS_AirTemp_IsbL-0175_LatLon0.15_PT060H.grib2 2026-05-07 04:16 969K
20260507T00Z_MSC_GDPS_AirTemp_IsbL-0200_LatLon0.15_PT060H.grib2 2026-05-07 04:16 1.0M
20260507T00Z_MSC_GDPS_AirTemp_IsbL-0225_LatLon0.15_PT060H.grib2 2026-05-07 04:16 1.0M
20260507T00Z_MSC_GDPS_AirTemp_IsbL-0250_LatLon0.15_PT060H.grib2 2026-05-07 04:16 1.0M
20260507T00Z_MSC_GDPS_AirTemp_IsbL-0275_LatLon0.15_PT060H.grib2 2026-05-07 04:16 1.0M
20260507T00Z_MSC_GDPS_AirTemp_IsbL-0300_LatLon0.15_PT060H.grib2 2026-05-07 04:16 1.0M
20260507T00Z_MSC_GDPS_AirTemp_IsbL-0350_LatLon0.15_PT060H.grib2 2026-05-07 04:16 938K
20260507T00Z_MSC_GDPS_AirTemp_IsbL-0400_LatLon0.15_PT060H.grib2 2026-05-07 04:16 950K
20260507T00Z_MSC_GDPS_AirTemp_IsbL-0450_LatLon0.15_PT060H.grib2 2026-05-07 04:16 971K
20260507T00Z_MSC_GDPS_AirTemp_IsbL-0500_LatLon0.15_PT060H.grib2 2026-05-07 04:16 1.0M
20260507T00Z_MSC_GDPS_AirTemp_IsbL-0550_LatLon0.15_PT060H.grib2 2026-05-07 04:16 809K
20260507T00Z_MSC_GDPS_AirTemp_IsbL-0600_LatLon0.15_PT060H.grib2 2026-05-07 04:16 896K
20260507T00Z_MSC_GDPS_AirTemp_IsbL-0650_LatLon0.15_PT060H.grib2 2026-05-07 04:16 924K
20260507T00Z_MSC_GDPS_AirTemp_IsbL-0700_LatLon0.15_PT060H.grib2 2026-05-07 04:16 961K
20260507T00Z_MSC_GDPS_AirTemp_IsbL-0750_LatLon0.15_PT060H.grib2 2026-05-07 04:16 1.0M
20260507T00Z_MSC_GDPS_AirTemp_IsbL-0800_LatLon0.15_PT060H.grib2 2026-05-07 04:16 1.1M
20260507T00Z_MSC_GDPS_AirTemp_IsbL-0850_LatLon0.15_PT060H.grib2 2026-05-07 04:16 1.1M
20260507T00Z_MSC_GDPS_AirTemp_IsbL-0875_LatLon0.15_PT060H.grib2 2026-05-07 04:16 1.2M
20260507T00Z_MSC_GDPS_AirTemp_IsbL-0900_LatLon0.15_PT060H.grib2 2026-05-07 04:16 1.1M
20260507T00Z_MSC_GDPS_AirTemp_IsbL-0925_LatLon0.15_PT060H.grib2 2026-05-07 04:16 1.1M
20260507T00Z_MSC_GDPS_AirTemp_IsbL-0950_LatLon0.15_PT060H.grib2 2026-05-07 04:16 1.1M
20260507T00Z_MSC_GDPS_AirTemp_IsbL-0970_LatLon0.15_PT060H.grib2 2026-05-07 04:16 1.1M
20260507T00Z_MSC_GDPS_AirTemp_IsbL-0985_LatLon0.15_PT060H.grib2 2026-05-07 04:16 1.1M
20260507T00Z_MSC_GDPS_AirTemp_IsbL-1000_LatLon0.15_PT060H.grib2 2026-05-07 04:16 1.1M
20260507T00Z_MSC_GDPS_AirTemp_IsbL-1015_LatLon0.15_PT060H.grib2 2026-05-07 04:16 1.1M
20260507T00Z_MSC_GDPS_Albedo_Sfc_LatLon0.15_PT060H.grib2 2026-05-07 04:16 240K
20260507T00Z_MSC_GDPS_CAPE_Sfc_LatLon0.15_PT060H.grib2 2026-05-07 04:16 4.0M
20260507T00Z_MSC_GDPS_CIN_Sfc_LatLon0.15_PT060H.grib2 2026-05-07 04:16 2.9M
20260507T00Z_MSC_GDPS_CloudWater_EAtm_LatLon0.15_PT060H.grib2 2026-05-07 04:16 541K
20260507T00Z_MSC_GDPS_ConvectivePrecip-Accum_Sfc_LatLon0.15_PT060H.grib2 2026-05-07 04:16 2.9M
20260507T00Z_MSC_GDPS_DewPointDepression_AGL-2m_LatLon0.15_PT060H.grib2 2026-05-07 04:16 754K
20260507T00Z_MSC_GDPS_DewPointDepression_IsbL-0010_LatLon0.15_PT060H.grib2 2026-05-07 04:16 67K
20260507T00Z_MSC_GDPS_DewPointDepression_IsbL-0020_LatLon0.15_PT060H.grib2 2026-05-07 04:16 89K
20260507T00Z_MSC_GDPS_DewPointDepression_IsbL-0030_LatLon0.15_PT060H.grib2 2026-05-07 04:16 98K
20260507T00Z_MSC_GDPS_DewPointDepression_IsbL-0050_LatLon0.15_PT060H.grib2 2026-05-07 04:16 386K
20260507T00Z_MSC_GDPS_DewPointDepression_IsbL-0100_LatLon0.15_PT060H.grib2 2026-05-07 04:16 398K
20260507T00Z_MSC_GDPS_DewPointDepression_IsbL-0150_LatLon0.15_PT060H.grib2 2026-05-07 04:16 504K
20260507T00Z_MSC_GDPS_DewPointDepression_IsbL-0175_LatLon0.15_PT060H.grib2 2026-05-07 04:16 604K
20260507T00Z_MSC_GDPS_DewPointDepression_IsbL-0200_LatLon0.15_PT060H.grib2 2026-05-07 04:16 699K
20260507T00Z_MSC_GDPS_DewPointDepression_IsbL-0225_LatLon0.15_PT060H.grib2 2026-05-07 04:16 788K
20260507T00Z_MSC_GDPS_DewPointDepression_IsbL-0250_LatLon0.15_PT060H.grib2 2026-05-07 04:16 892K
20260507T00Z_MSC_GDPS_DewPointDepression_IsbL-0275_LatLon0.15_PT060H.grib2 2026-05-07 04:16 919K
20260507T00Z_MSC_GDPS_DewPointDepression_IsbL-0300_LatLon0.15_PT060H.grib2 2026-05-07 04:16 957K
20260507T00Z_MSC_GDPS_DewPointDepression_IsbL-0350_LatLon0.15_PT060H.grib2 2026-05-07 04:16 969K
20260507T00Z_MSC_GDPS_DewPointDepression_IsbL-0400_LatLon0.15_PT060H.grib2 2026-05-07 04:16 1.0M
20260507T00Z_MSC_GDPS_DewPointDepression_IsbL-0450_LatLon0.15_PT060H.grib2 2026-05-07 04:16 1.0M
20260507T00Z_MSC_GDPS_DewPointDepression_IsbL-0500_LatLon0.15_PT060H.grib2 2026-05-07 04:16 1.0M
20260507T00Z_MSC_GDPS_DewPointDepression_IsbL-0550_LatLon0.15_PT060H.grib2 2026-05-07 04:16 1.0M
20260507T00Z_MSC_GDPS_DewPointDepression_IsbL-0600_LatLon0.15_PT060H.grib2 2026-05-07 04:16 1.0M
20260507T00Z_MSC_GDPS_DewPointDepression_IsbL-0650_LatLon0.15_PT060H.grib2 2026-05-07 04:16 1.1M
20260507T00Z_MSC_GDPS_DewPointDepression_IsbL-0700_LatLon0.15_PT060H.grib2 2026-05-07 04:16 1.1M
20260507T00Z_MSC_GDPS_DewPointDepression_IsbL-0750_LatLon0.15_PT060H.grib2 2026-05-07 04:16 1.1M
20260507T00Z_MSC_GDPS_DewPointDepression_IsbL-0800_LatLon0.15_PT060H.grib2 2026-05-07 04:16 1.2M
20260507T00Z_MSC_GDPS_DewPointDepression_IsbL-0850_LatLon0.15_PT060H.grib2 2026-05-07 04:16 1.2M
20260507T00Z_MSC_GDPS_DewPointDepression_IsbL-0875_LatLon0.15_PT060H.grib2 2026-05-07 04:16 1.1M
20260507T00Z_MSC_GDPS_DewPointDepression_IsbL-0900_LatLon0.15_PT060H.grib2 2026-05-07 04:16 1.1M
20260507T00Z_MSC_GDPS_DewPointDepression_IsbL-0925_LatLon0.15_PT060H.grib2 2026-05-07 04:16 1.0M
20260507T00Z_MSC_GDPS_DewPointDepression_IsbL-0950_LatLon0.15_PT060H.grib2 2026-05-07 04:16 1.0M
20260507T00Z_MSC_GDPS_DewPointDepression_IsbL-0970_LatLon0.15_PT060H.grib2 2026-05-07 04:16 1.0M
20260507T00Z_MSC_GDPS_DewPointDepression_IsbL-0985_LatLon0.15_PT060H.grib2 2026-05-07 04:16 968K
20260507T00Z_MSC_GDPS_DewPointDepression_IsbL-1000_LatLon0.15_PT060H.grib2 2026-05-07 04:16 957K
20260507T00Z_MSC_GDPS_DewPointDepression_IsbL-1015_LatLon0.15_PT060H.grib2 2026-05-07 04:16 900K
20260507T00Z_MSC_GDPS_DewPoint_AGL-2m_LatLon0.15_PT060H.grib2 2026-05-07 04:16 607K
20260507T00Z_MSC_GDPS_DownwardLongwaveRadiationFlux-Accum_Sfc_LatLon0.15_PT060H.grib2 2026-05-07 04:16 871K
20260507T00Z_MSC_GDPS_DownwardShortwaveRadiationFlux-Accum_NTAtm_LatLon0.15_PT060H.grib2 2026-05-07 04:16 211K
20260507T00Z_MSC_GDPS_DownwardShortwaveRadiationFlux-Accum_Sfc_LatLon0.15_PT060H.grib2 2026-05-07 04:16 828K
20260507T00Z_MSC_GDPS_FreezingRain-Accum12h_Sfc_LatLon0.15_PT060H.grib2 2026-05-07 04:16 98K
20260507T00Z_MSC_GDPS_FreezingRain-Accum1h_Sfc_LatLon0.15_PT060H.grib2 2026-05-07 04:16 44K
20260507T00Z_MSC_GDPS_FreezingRain-Accum24h_Sfc_LatLon0.15_PT060H.grib2 2026-05-07 04:16 146K
20260507T00Z_MSC_GDPS_FreezingRain-Accum3h_Sfc_LatLon0.15_PT060H.grib2 2026-05-07 04:16 40K
20260507T00Z_MSC_GDPS_FreezingRain-Accum6h_Sfc_LatLon0.15_PT060H.grib2 2026-05-07 04:16 73K
20260507T00Z_MSC_GDPS_FreezingRain-Accum_Sfc_LatLon0.15_PT060H.grib2 2026-05-07 04:16 260K
20260507T00Z_MSC_GDPS_GeopotentialHeight_IsbL-0001_LatLon0.15_PT060H.grib2 2026-05-07 04:16 441K
20260507T00Z_MSC_GDPS_GeopotentialHeight_IsbL-0005_LatLon0.15_PT060H.grib2 2026-05-07 04:16 490K
20260507T00Z_MSC_GDPS_GeopotentialHeight_IsbL-0010_LatLon0.15_PT060H.grib2 2026-05-07 04:16 479K
20260507T00Z_MSC_GDPS_GeopotentialHeight_IsbL-0020_LatLon0.15_PT060H.grib2 2026-05-07 04:16 419K
20260507T00Z_MSC_GDPS_GeopotentialHeight_IsbL-0030_LatLon0.15_PT060H.grib2 2026-05-07 04:16 424K
20260507T00Z_MSC_GDPS_GeopotentialHeight_IsbL-0050_LatLon0.15_PT060H.grib2 2026-05-07 04:16 582K
20260507T00Z_MSC_GDPS_GeopotentialHeight_IsbL-0100_LatLon0.15_PT060H.grib2 2026-05-07 04:16 618K
20260507T00Z_MSC_GDPS_GeopotentialHeight_IsbL-0150_LatLon0.15_PT060H.grib2 2026-05-07 04:16 636K
20260507T00Z_MSC_GDPS_GeopotentialHeight_IsbL-0175_LatLon0.15_PT060H.grib2 2026-05-07 04:16 640K
20260507T00Z_MSC_GDPS_GeopotentialHeight_IsbL-0200_LatLon0.15_PT060H.grib2 2026-05-07 04:16 644K
20260507T00Z_MSC_GDPS_GeopotentialHeight_IsbL-0225_LatLon0.15_PT060H.grib2 2026-05-07 04:16 641K
20260507T00Z_MSC_GDPS_GeopotentialHeight_IsbL-0250_LatLon0.15_PT060H.grib2 2026-05-07 04:16 651K
20260507T00Z_MSC_GDPS_GeopotentialHeight_IsbL-0275_LatLon0.15_PT060H.grib2 2026-05-07 04:16 649K
20260507T00Z_MSC_GDPS_GeopotentialHeight_IsbL-0300_LatLon0.15_PT060H.grib2 2026-05-07 04:16 649K
20260507T00Z_MSC_GDPS_GeopotentialHeight_IsbL-0350_LatLon0.15_PT060H.grib2 2026-05-07 04:16 637K
20260507T00Z_MSC_GDPS_GeopotentialHeight_IsbL-0400_LatLon0.15_PT060H.grib2 2026-05-07 04:16 629K
20260507T00Z_MSC_GDPS_GeopotentialHeight_IsbL-0450_LatLon0.15_PT060H.grib2 2026-05-07 04:16 619K
20260507T00Z_MSC_GDPS_GeopotentialHeight_IsbL-0500_LatLon0.15_PT060H.grib2 2026-05-07 04:16 537K
20260507T00Z_MSC_GDPS_GeopotentialHeight_IsbL-0550_LatLon0.15_PT060H.grib2 2026-05-07 04:16 531K
20260507T00Z_MSC_GDPS_GeopotentialHeight_IsbL-0600_LatLon0.15_PT060H.grib2 2026-05-07 04:16 529K
20260507T00Z_MSC_GDPS_GeopotentialHeight_IsbL-0650_LatLon0.15_PT060H.grib2 2026-05-07 04:16 528K
20260507T00Z_MSC_GDPS_GeopotentialHeight_IsbL-0700_LatLon0.15_PT060H.grib2 2026-05-07 04:16 700K
20260507T00Z_MSC_GDPS_GeopotentialHeight_IsbL-0750_LatLon0.15_PT060H.grib2 2026-05-07 04:16 705K
20260507T00Z_MSC_GDPS_GeopotentialHeight_IsbL-0800_LatLon0.15_PT060H.grib2 2026-05-07 04:16 714K
20260507T00Z_MSC_GDPS_GeopotentialHeight_IsbL-0850_LatLon0.15_PT060H.grib2 2026-05-07 04:16 724K
20260507T00Z_MSC_GDPS_GeopotentialHeight_IsbL-0875_LatLon0.15_PT060H.grib2 2026-05-07 04:16 726K
20260507T00Z_MSC_GDPS_GeopotentialHeight_IsbL-0900_LatLon0.15_PT060H.grib2 2026-05-07 04:16 732K
20260507T00Z_MSC_GDPS_GeopotentialHeight_IsbL-0925_LatLon0.15_PT060H.grib2 2026-05-07 04:16 739K
20260507T00Z_MSC_GDPS_GeopotentialHeight_IsbL-0950_LatLon0.15_PT060H.grib2 2026-05-07 04:16 745K
20260507T00Z_MSC_GDPS_GeopotentialHeight_IsbL-0970_LatLon0.15_PT060H.grib2 2026-05-07 04:16 757K
20260507T00Z_MSC_GDPS_GeopotentialHeight_IsbL-0985_LatLon0.15_PT060H.grib2 2026-05-07 04:16 772K
20260507T00Z_MSC_GDPS_GeopotentialHeight_IsbL-1000_LatLon0.15_PT060H.grib2 2026-05-07 04:16 792K
20260507T00Z_MSC_GDPS_GeopotentialHeight_IsbL-1015_LatLon0.15_PT060H.grib2 2026-05-07 04:16 814K
20260507T00Z_MSC_GDPS_Humidex_Sfc_LatLon0.15_PT060H.grib2 2026-05-07 04:16 5.3M
20260507T00Z_MSC_GDPS_IcePellets-Accum12h_Sfc_LatLon0.15_PT060H.grib2 2026-05-07 04:16 36K
20260507T00Z_MSC_GDPS_IcePellets-Accum1h_Sfc_LatLon0.15_PT060H.grib2 2026-05-07 04:16 20K
20260507T00Z_MSC_GDPS_IcePellets-Accum24h_Sfc_LatLon0.15_PT060H.grib2 2026-05-07 04:16 47K
20260507T00Z_MSC_GDPS_IcePellets-Accum3h_Sfc_LatLon0.15_PT060H.grib2 2026-05-07 04:16 23K
20260507T00Z_MSC_GDPS_IcePellets-Accum6h_Sfc_LatLon0.15_PT060H.grib2 2026-05-07 04:16 30K
20260507T00Z_MSC_GDPS_IcePellets-Accum_Sfc_LatLon0.15_PT060H.grib2 2026-05-07 04:16 74K
20260507T00Z_MSC_GDPS_KIndex_Sfc_LatLon0.15_PT060H.grib2 2026-05-07 04:16 6.4M
20260507T00Z_MSC_GDPS_LatentHeatNetFlux_Sfc_LatLon0.15_PT060H.grib2 2026-05-07 04:16 736K
20260507T00Z_MSC_GDPS_LiftedIndex-MU-VT_IsbL-0500_LatLon0.15_PT060H.grib2 2026-05-07 04:16 5.4M
20260507T00Z_MSC_GDPS_NetLongwaveRadiationFlux-Accum_Sfc_LatLon0.15_PT060H.grib2 2026-05-07 04:16 1.2M
20260507T00Z_MSC_GDPS_NetShortwaveRadiationFlux-Accum_Sfc_LatLon0.15_PT060H.grib2 2026-05-07 04:16 1.0M
20260507T00Z_MSC_GDPS_O3MixingRatio_Sfc_LatLon0.15_PT060H.grib2 2026-05-07 04:55 1.9M
20260507T00Z_MSC_GDPS_O3_EAtm_LatLon0.15_PT060H.grib2 2026-05-07 04:55 2.5M
20260507T00Z_MSC_GDPS_PlanetaryBoundaryLayerHeight_Sfc_LatLon0.15_PT060H.grib2 2026-05-07 04:16 2.5M
20260507T00Z_MSC_GDPS_Precip-Accum12h_Sfc_LatLon0.15_PT060H.grib2 2026-05-07 04:16 4.1M
20260507T00Z_MSC_GDPS_Precip-Accum1h_Sfc_LatLon0.15_PT060H.grib2 2026-05-07 04:16 3.3M
20260507T00Z_MSC_GDPS_Precip-Accum24h_Sfc_LatLon0.15_PT060H.grib2 2026-05-07 04:16 4.6M
20260507T00Z_MSC_GDPS_Precip-Accum3h_Sfc_LatLon0.15_PT060H.grib2 2026-05-07 04:16 3.6M
20260507T00Z_MSC_GDPS_Precip-Accum6h_Sfc_LatLon0.15_PT060H.grib2 2026-05-07 04:16 3.9M
20260507T00Z_MSC_GDPS_Precip-Accum_Sfc_LatLon0.15_PT060H.grib2 2026-05-07 04:16 4.7M
20260507T00Z_MSC_GDPS_PrecipRate_Sfc_LatLon0.15_PT060H.grib2 2026-05-07 04:16 3.1M
20260507T00Z_MSC_GDPS_PrecipType-Instant_Sfc_LatLon0.15_PT060H.grib2 2026-05-07 04:16 1.6M
20260507T00Z_MSC_GDPS_Pressure_MSL_LatLon0.15_PT060H.grib2 2026-05-07 04:16 727K
20260507T00Z_MSC_GDPS_Pressure_PVU-1.5_LatLon0.15_PT060H.grib2 2026-05-07 04:16 5.8M
20260507T00Z_MSC_GDPS_Pressure_PVU-1_LatLon0.15_PT060H.grib2 2026-05-07 04:16 6.0M
20260507T00Z_MSC_GDPS_Pressure_PVU-2_LatLon0.15_PT060H.grib2 2026-05-07 04:16 5.6M
20260507T00Z_MSC_GDPS_Pressure_Sfc_LatLon0.15_PT060H.grib2 2026-05-07 04:16 1.1M
20260507T00Z_MSC_GDPS_RadiativeTemp_Sfc_LatLon0.15_PT060H.grib2 2026-05-07 04:16 496K
20260507T00Z_MSC_GDPS_Rain-Accum12h_Sfc_LatLon0.15_PT060H.grib2 2026-05-07 04:16 2.7M
20260507T00Z_MSC_GDPS_Rain-Accum1h_Sfc_LatLon0.15_PT060H.grib2 2026-05-07 04:16 1.7M
20260507T00Z_MSC_GDPS_Rain-Accum24h_Sfc_LatLon0.15_PT060H.grib2 2026-05-07 04:16 3.2M
20260507T00Z_MSC_GDPS_Rain-Accum3h_Sfc_LatLon0.15_PT060H.grib2 2026-05-07 04:16 1.9M
20260507T00Z_MSC_GDPS_Rain-Accum6h_Sfc_LatLon0.15_PT060H.grib2 2026-05-07 04:16 2.5M
20260507T00Z_MSC_GDPS_Rain-Accum_Sfc_LatLon0.15_PT060H.grib2 2026-05-07 04:16 3.6M
20260507T00Z_MSC_GDPS_RelativeHumidity_AGL-2m_LatLon0.15_PT060H.grib2 2026-05-07 04:16 1.1M
20260507T00Z_MSC_GDPS_RelativeHumidity_IsbL-0010_LatLon0.15_PT060H.grib2 2026-05-07 04:16 133K
20260507T00Z_MSC_GDPS_RelativeHumidity_IsbL-0020_LatLon0.15_PT060H.grib2 2026-05-07 04:16 176K
20260507T00Z_MSC_GDPS_RelativeHumidity_IsbL-0030_LatLon0.15_PT060H.grib2 2026-05-07 04:16 195K
20260507T00Z_MSC_GDPS_RelativeHumidity_IsbL-0050_LatLon0.15_PT060H.grib2 2026-05-07 04:16 343K
20260507T00Z_MSC_GDPS_RelativeHumidity_IsbL-0100_LatLon0.15_PT060H.grib2 2026-05-07 04:16 509K
20260507T00Z_MSC_GDPS_RelativeHumidity_IsbL-0150_LatLon0.15_PT060H.grib2 2026-05-07 04:16 686K
20260507T00Z_MSC_GDPS_RelativeHumidity_IsbL-0175_LatLon0.15_PT060H.grib2 2026-05-07 04:16 811K
20260507T00Z_MSC_GDPS_RelativeHumidity_IsbL-0200_LatLon0.15_PT060H.grib2 2026-05-07 04:16 716K
20260507T00Z_MSC_GDPS_RelativeHumidity_IsbL-0225_LatLon0.15_PT060H.grib2 2026-05-07 04:16 800K
20260507T00Z_MSC_GDPS_RelativeHumidity_IsbL-0250_LatLon0.15_PT060H.grib2 2026-05-07 04:16 879K
20260507T00Z_MSC_GDPS_RelativeHumidity_IsbL-0275_LatLon0.15_PT060H.grib2 2026-05-07 04:16 900K
20260507T00Z_MSC_GDPS_RelativeHumidity_IsbL-0300_LatLon0.15_PT060H.grib2 2026-05-07 04:16 938K
20260507T00Z_MSC_GDPS_RelativeHumidity_IsbL-0350_LatLon0.15_PT060H.grib2 2026-05-07 04:16 948K
20260507T00Z_MSC_GDPS_RelativeHumidity_IsbL-0400_LatLon0.15_PT060H.grib2 2026-05-07 04:16 967K
20260507T00Z_MSC_GDPS_RelativeHumidity_IsbL-0450_LatLon0.15_PT060H.grib2 2026-05-07 04:16 1.0M
20260507T00Z_MSC_GDPS_RelativeHumidity_IsbL-0500_LatLon0.15_PT060H.grib2 2026-05-07 04:16 1.0M
20260507T00Z_MSC_GDPS_RelativeHumidity_IsbL-0550_LatLon0.15_PT060H.grib2 2026-05-07 04:16 1.1M
20260507T00Z_MSC_GDPS_RelativeHumidity_IsbL-0600_LatLon0.15_PT060H.grib2 2026-05-07 04:16 1.1M
20260507T00Z_MSC_GDPS_RelativeHumidity_IsbL-0650_LatLon0.15_PT060H.grib2 2026-05-07 04:16 1.1M
20260507T00Z_MSC_GDPS_RelativeHumidity_IsbL-0700_LatLon0.15_PT060H.grib2 2026-05-07 04:16 1.1M
20260507T00Z_MSC_GDPS_RelativeHumidity_IsbL-0750_LatLon0.15_PT060H.grib2 2026-05-07 04:16 1.2M
20260507T00Z_MSC_GDPS_RelativeHumidity_IsbL-0800_LatLon0.15_PT060H.grib2 2026-05-07 04:16 1.2M
20260507T00Z_MSC_GDPS_RelativeHumidity_IsbL-0850_LatLon0.15_PT060H.grib2 2026-05-07 04:16 1.3M
20260507T00Z_MSC_GDPS_RelativeHumidity_IsbL-0875_LatLon0.15_PT060H.grib2 2026-05-07 04:16 1.3M
20260507T00Z_MSC_GDPS_RelativeHumidity_IsbL-0900_LatLon0.15_PT060H.grib2 2026-05-07 04:16 1.3M
20260507T00Z_MSC_GDPS_RelativeHumidity_IsbL-0925_LatLon0.15_PT060H.grib2 2026-05-07 04:16 1.2M
20260507T00Z_MSC_GDPS_RelativeHumidity_IsbL-0950_LatLon0.15_PT060H.grib2 2026-05-07 04:16 1.2M
20260507T00Z_MSC_GDPS_RelativeHumidity_IsbL-0970_LatLon0.15_PT060H.grib2 2026-05-07 04:16 1.2M
20260507T00Z_MSC_GDPS_RelativeHumidity_IsbL-0985_LatLon0.15_PT060H.grib2 2026-05-07 04:16 1.1M
20260507T00Z_MSC_GDPS_RelativeHumidity_IsbL-1000_LatLon0.15_PT060H.grib2 2026-05-07 04:16 1.1M
20260507T00Z_MSC_GDPS_RelativeHumidity_IsbL-1015_LatLon0.15_PT060H.grib2 2026-05-07 04:16 1.0M
20260507T00Z_MSC_GDPS_RelativeVorticity_IsbL-0200_LatLon0.15_PT060H.grib2 2026-05-07 04:16 1.2M
20260507T00Z_MSC_GDPS_RelativeVorticity_IsbL-0250_LatLon0.15_PT060H.grib2 2026-05-07 04:16 1.3M
20260507T00Z_MSC_GDPS_RelativeVorticity_IsbL-0500_LatLon0.15_PT060H.grib2 2026-05-07 04:16 1.2M
20260507T00Z_MSC_GDPS_RelativeVorticity_IsbL-0700_LatLon0.15_PT060H.grib2 2026-05-07 04:16 1.3M
20260507T00Z_MSC_GDPS_RelativeVorticity_IsbL-0850_LatLon0.15_PT060H.grib2 2026-05-07 04:16 1.6M
20260507T00Z_MSC_GDPS_Runoff-Accum_Sfc_LatLon0.15_PT060H.grib2 2026-05-07 04:16 101K
20260507T00Z_MSC_GDPS_SensibleHeatNetFlux_Sfc_LatLon0.15_PT060H.grib2 2026-05-07 04:16 493K
20260507T00Z_MSC_GDPS_ShowalterIndex_IsbL-0500_LatLon0.15_PT060H.grib2 2026-05-07 04:16 6.2M
20260507T00Z_MSC_GDPS_Snow-Accum12h_Sfc_LatLon0.15_PT060H.grib2 2026-05-07 04:16 1.3M
20260507T00Z_MSC_GDPS_Snow-Accum1h_Sfc_LatLon0.15_PT060H.grib2 2026-05-07 04:16 1.1M
20260507T00Z_MSC_GDPS_Snow-Accum24h_Sfc_LatLon0.15_PT060H.grib2 2026-05-07 04:16 1.6M
20260507T00Z_MSC_GDPS_Snow-Accum3h_Sfc_LatLon0.15_PT060H.grib2 2026-05-07 04:16 1.1M
20260507T00Z_MSC_GDPS_Snow-Accum6h_Sfc_LatLon0.15_PT060H.grib2 2026-05-07 04:16 1.4M
20260507T00Z_MSC_GDPS_Snow-Accum_Sfc_LatLon0.15_PT060H.grib2 2026-05-07 04:16 1.8M
20260507T00Z_MSC_GDPS_SnowDensity_Sfc_LatLon0.15_PT060H.grib2 2026-05-07 04:16 257K
20260507T00Z_MSC_GDPS_SnowDepth_Sfc_LatLon0.15_PT060H.grib2 2026-05-07 04:16 1.7M
20260507T00Z_MSC_GDPS_SoilTemp_DBS-0to10cm_LatLon0.15_PT060H.grib2 2026-05-07 04:16 509K
20260507T00Z_MSC_GDPS_SoilTemp_Sfc_LatLon0.15_PT060H.grib2 2026-05-07 04:16 590K
20260507T00Z_MSC_GDPS_SoilVolumetricIceContent_Sfc_LatLon0.15_PT060H.grib2 2026-05-07 04:16 181K
20260507T00Z_MSC_GDPS_SoilVolumetricWaterContent_DBS-0to10cm_LatLon0.15_PT060H.grib2 2026-05-07 04:16 598K
20260507T00Z_MSC_GDPS_SoilVolumetricWaterContent_DBS-0to1cm_LatLon0.15_PT060H.grib2 2026-05-07 04:16 648K
20260507T00Z_MSC_GDPS_SpecificHumidity_AGL-120m_LatLon0.15_PT060H.grib2 2026-05-07 04:16 1.1M
20260507T00Z_MSC_GDPS_SpecificHumidity_AGL-2m_LatLon0.15_PT060H.grib2 2026-05-07 04:16 1.2M
20260507T00Z_MSC_GDPS_SpecificHumidity_AGL-40m_LatLon0.15_PT060H.grib2 2026-05-07 04:16 1.1M
20260507T00Z_MSC_GDPS_SpecificHumidity_AGL-80m_LatLon0.15_PT060H.grib2 2026-05-07 04:16 1.1M
20260507T00Z_MSC_GDPS_SpecificHumidity_IsbL-0001_LatLon0.15_PT060H.grib2 2026-05-07 04:16 1.3M
20260507T00Z_MSC_GDPS_SpecificHumidity_IsbL-0005_LatLon0.15_PT060H.grib2 2026-05-07 04:16 1.2M
20260507T00Z_MSC_GDPS_SpecificHumidity_IsbL-0010_LatLon0.15_PT060H.grib2 2026-05-07 04:16 1.3M
20260507T00Z_MSC_GDPS_SpecificHumidity_IsbL-0020_LatLon0.15_PT060H.grib2 2026-05-07 04:16 1.3M
20260507T00Z_MSC_GDPS_SpecificHumidity_IsbL-0030_LatLon0.15_PT060H.grib2 2026-05-07 04:16 1.3M
20260507T00Z_MSC_GDPS_SpecificHumidity_IsbL-0050_LatLon0.15_PT060H.grib2 2026-05-07 04:16 1.3M
20260507T00Z_MSC_GDPS_SpecificHumidity_IsbL-0100_LatLon0.15_PT060H.grib2 2026-05-07 04:16 1.3M
20260507T00Z_MSC_GDPS_SpecificHumidity_IsbL-0150_LatLon0.15_PT060H.grib2 2026-05-07 04:16 1.3M
20260507T00Z_MSC_GDPS_SpecificHumidity_IsbL-0175_LatLon0.15_PT060H.grib2 2026-05-07 04:16 1.3M
20260507T00Z_MSC_GDPS_SpecificHumidity_IsbL-0200_LatLon0.15_PT060H.grib2 2026-05-07 04:16 1.3M
20260507T00Z_MSC_GDPS_SpecificHumidity_IsbL-0225_LatLon0.15_PT060H.grib2 2026-05-07 04:16 1.3M
20260507T00Z_MSC_GDPS_SpecificHumidity_IsbL-0250_LatLon0.15_PT060H.grib2 2026-05-07 04:16 1.2M
20260507T00Z_MSC_GDPS_SpecificHumidity_IsbL-0275_LatLon0.15_PT060H.grib2 2026-05-07 04:16 1.4M
20260507T00Z_MSC_GDPS_SpecificHumidity_IsbL-0300_LatLon0.15_PT060H.grib2 2026-05-07 04:16 1.3M
20260507T00Z_MSC_GDPS_SpecificHumidity_IsbL-0350_LatLon0.15_PT060H.grib2 2026-05-07 04:16 1.3M
20260507T00Z_MSC_GDPS_SpecificHumidity_IsbL-0400_LatLon0.15_PT060H.grib2 2026-05-07 04:16 1.5M
20260507T00Z_MSC_GDPS_SpecificHumidity_IsbL-0450_LatLon0.15_PT060H.grib2 2026-05-07 04:16 1.3M
20260507T00Z_MSC_GDPS_SpecificHumidity_IsbL-0500_LatLon0.15_PT060H.grib2 2026-05-07 04:16 1.5M
20260507T00Z_MSC_GDPS_SpecificHumidity_IsbL-0550_LatLon0.15_PT060H.grib2 2026-05-07 04:16 1.6M
20260507T00Z_MSC_GDPS_SpecificHumidity_IsbL-0600_LatLon0.15_PT060H.grib2 2026-05-07 04:16 1.4M
20260507T00Z_MSC_GDPS_SpecificHumidity_IsbL-0650_LatLon0.15_PT060H.grib2 2026-05-07 04:16 1.5M
20260507T00Z_MSC_GDPS_SpecificHumidity_IsbL-0700_LatLon0.15_PT060H.grib2 2026-05-07 04:16 1.6M
20260507T00Z_MSC_GDPS_SpecificHumidity_IsbL-0750_LatLon0.15_PT060H.grib2 2026-05-07 04:16 1.7M
20260507T00Z_MSC_GDPS_SpecificHumidity_IsbL-0800_LatLon0.15_PT060H.grib2 2026-05-07 04:16 1.9M
20260507T00Z_MSC_GDPS_SpecificHumidity_IsbL-0850_LatLon0.15_PT060H.grib2 2026-05-07 04:16 1.6M
20260507T00Z_MSC_GDPS_SpecificHumidity_IsbL-0875_LatLon0.15_PT060H.grib2 2026-05-07 04:16 1.6M
20260507T00Z_MSC_GDPS_SpecificHumidity_IsbL-0900_LatLon0.15_PT060H.grib2 2026-05-07 04:16 1.6M
20260507T00Z_MSC_GDPS_SpecificHumidity_IsbL-0925_LatLon0.15_PT060H.grib2 2026-05-07 04:16 1.6M
20260507T00Z_MSC_GDPS_SpecificHumidity_IsbL-0950_LatLon0.15_PT060H.grib2 2026-05-07 04:16 1.6M
20260507T00Z_MSC_GDPS_SpecificHumidity_IsbL-0970_LatLon0.15_PT060H.grib2 2026-05-07 04:16 1.5M
20260507T00Z_MSC_GDPS_SpecificHumidity_IsbL-0985_LatLon0.15_PT060H.grib2 2026-05-07 04:16 1.5M
20260507T00Z_MSC_GDPS_SpecificHumidity_IsbL-1000_LatLon0.15_PT060H.grib2 2026-05-07 04:16 1.5M
20260507T00Z_MSC_GDPS_SpecificHumidity_IsbL-1015_LatLon0.15_PT060H.grib2 2026-05-07 04:16 1.5M
20260507T00Z_MSC_GDPS_SpecificHumidity_Sfc_LatLon0.15_PT060H.grib2 2026-05-07 04:16 683K
20260507T00Z_MSC_GDPS_Thickness_IsbL-0850to0700_LatLon0.15_PT060H.grib2 2026-05-07 04:16 477K
20260507T00Z_MSC_GDPS_Thickness_IsbL-1000to0500_LatLon0.15_PT060H.grib2 2026-05-07 04:16 379K
20260507T00Z_MSC_GDPS_Thickness_IsbL-1000to0850_LatLon0.15_PT060H.grib2 2026-05-07 04:16 495K
20260507T00Z_MSC_GDPS_TotalCloudCover_Sfc_LatLon0.15_PT060H.grib2 2026-05-07 04:16 825K
20260507T00Z_MSC_GDPS_TotalTotalsIndex_Sfc_LatLon0.15_PT060H.grib2 2026-05-07 04:16 6.2M
20260507T00Z_MSC_GDPS_UVIndex-ClearSky_Sfc_LatLon0.15_PT060H.grib2 2026-05-07 04:55 1.0M
20260507T00Z_MSC_GDPS_UVIndex_Sfc_LatLon0.15_PT060H.grib2 2026-05-07 04:55 1.5M
20260507T00Z_MSC_GDPS_UpwardLongwaveRadiationFlux_NTAtm_LatLon0.15_PT060H.grib2 2026-05-07 04:16 842K
20260507T00Z_MSC_GDPS_VerticalVelocity_IsbL-0200_LatLon0.15_PT060H.grib2 2026-05-07 04:16 950K
20260507T00Z_MSC_GDPS_VerticalVelocity_IsbL-0250_LatLon0.15_PT060H.grib2 2026-05-07 04:16 1.1M
20260507T00Z_MSC_GDPS_VerticalVelocity_IsbL-0500_LatLon0.15_PT060H.grib2 2026-05-07 04:16 1.3M
20260507T00Z_MSC_GDPS_VerticalVelocity_IsbL-0600_LatLon0.15_PT060H.grib2 2026-05-07 04:16 1.1M
20260507T00Z_MSC_GDPS_VerticalVelocity_IsbL-0700_LatLon0.15_PT060H.grib2 2026-05-07 04:16 1.2M
20260507T00Z_MSC_GDPS_VerticalVelocity_IsbL-0850_LatLon0.15_PT060H.grib2 2026-05-07 04:16 1.6M
20260507T00Z_MSC_GDPS_WindChill_Sfc_LatLon0.15_PT060H.grib2 2026-05-07 04:16 5.3M
20260507T00Z_MSC_GDPS_WindDir_AGL-10m_LatLon0.15_PT060H.grib2 2026-05-07 04:16 1.3M
20260507T00Z_MSC_GDPS_WindDir_AGL-120m_LatLon0.15_PT060H.grib2 2026-05-07 04:16 1.3M
20260507T00Z_MSC_GDPS_WindDir_AGL-40m_LatLon0.15_PT060H.grib2 2026-05-07 04:16 1.4M
20260507T00Z_MSC_GDPS_WindDir_AGL-80m_LatLon0.15_PT060H.grib2 2026-05-07 04:16 1.3M
20260507T00Z_MSC_GDPS_WindDir_IsbL-0001_LatLon0.15_PT060H.grib2 2026-05-07 04:16 670K
20260507T00Z_MSC_GDPS_WindDir_IsbL-0005_LatLon0.15_PT060H.grib2 2026-05-07 04:16 825K
20260507T00Z_MSC_GDPS_WindDir_IsbL-0010_LatLon0.15_PT060H.grib2 2026-05-07 04:16 842K
20260507T00Z_MSC_GDPS_WindDir_IsbL-0020_LatLon0.15_PT060H.grib2 2026-05-07 04:16 949K
20260507T00Z_MSC_GDPS_WindDir_IsbL-0030_LatLon0.15_PT060H.grib2 2026-05-07 04:16 942K
20260507T00Z_MSC_GDPS_WindDir_IsbL-0050_LatLon0.15_PT060H.grib2 2026-05-07 04:16 950K
20260507T00Z_MSC_GDPS_WindDir_IsbL-0100_LatLon0.15_PT060H.grib2 2026-05-07 04:16 1.0M
20260507T00Z_MSC_GDPS_WindDir_IsbL-0150_LatLon0.15_PT060H.grib2 2026-05-07 04:16 1.0M
20260507T00Z_MSC_GDPS_WindDir_IsbL-0175_LatLon0.15_PT060H.grib2 2026-05-07 04:16 1.1M
20260507T00Z_MSC_GDPS_WindDir_IsbL-0200_LatLon0.15_PT060H.grib2 2026-05-07 04:16 1.1M
20260507T00Z_MSC_GDPS_WindDir_IsbL-0225_LatLon0.15_PT060H.grib2 2026-05-07 04:16 1.1M
20260507T00Z_MSC_GDPS_WindDir_IsbL-0250_LatLon0.15_PT060H.grib2 2026-05-07 04:16 1.1M
20260507T00Z_MSC_GDPS_WindDir_IsbL-0275_LatLon0.15_PT060H.grib2 2026-05-07 04:16 1.2M
20260507T00Z_MSC_GDPS_WindDir_IsbL-0300_LatLon0.15_PT060H.grib2 2026-05-07 04:16 1.2M
20260507T00Z_MSC_GDPS_WindDir_IsbL-0350_LatLon0.15_PT060H.grib2 2026-05-07 04:16 1.2M
20260507T00Z_MSC_GDPS_WindDir_IsbL-0400_LatLon0.15_PT060H.grib2 2026-05-07 04:16 1.3M
20260507T00Z_MSC_GDPS_WindDir_IsbL-0450_LatLon0.15_PT060H.grib2 2026-05-07 04:16 1.3M
20260507T00Z_MSC_GDPS_WindDir_IsbL-0500_LatLon0.15_PT060H.grib2 2026-05-07 04:16 1.3M
20260507T00Z_MSC_GDPS_WindDir_IsbL-0550_LatLon0.15_PT060H.grib2 2026-05-07 04:16 1.4M
20260507T00Z_MSC_GDPS_WindDir_IsbL-0600_LatLon0.15_PT060H.grib2 2026-05-07 04:16 1.4M
20260507T00Z_MSC_GDPS_WindDir_IsbL-0650_LatLon0.15_PT060H.grib2 2026-05-07 04:16 1.5M
20260507T00Z_MSC_GDPS_WindDir_IsbL-0700_LatLon0.15_PT060H.grib2 2026-05-07 04:16 1.6M
20260507T00Z_MSC_GDPS_WindDir_IsbL-0750_LatLon0.15_PT060H.grib2 2026-05-07 04:16 1.7M
20260507T00Z_MSC_GDPS_WindDir_IsbL-0800_LatLon0.15_PT060H.grib2 2026-05-07 04:16 1.8M
20260507T00Z_MSC_GDPS_WindDir_IsbL-0850_LatLon0.15_PT060H.grib2 2026-05-07 04:16 1.9M
20260507T00Z_MSC_GDPS_WindDir_IsbL-0875_LatLon0.15_PT060H.grib2 2026-05-07 04:16 1.9M
20260507T00Z_MSC_GDPS_WindDir_IsbL-0900_LatLon0.15_PT060H.grib2 2026-05-07 04:16 1.9M
20260507T00Z_MSC_GDPS_WindDir_IsbL-0925_LatLon0.15_PT060H.grib2 2026-05-07 04:16 1.9M
20260507T00Z_MSC_GDPS_WindDir_IsbL-0950_LatLon0.15_PT060H.grib2 2026-05-07 04:16 1.9M
20260507T00Z_MSC_GDPS_WindDir_IsbL-0970_LatLon0.15_PT060H.grib2 2026-05-07 04:16 1.9M
20260507T00Z_MSC_GDPS_WindDir_IsbL-0985_LatLon0.15_PT060H.grib2 2026-05-07 04:16 2.0M
20260507T00Z_MSC_GDPS_WindDir_IsbL-1000_LatLon0.15_PT060H.grib2 2026-05-07 04:16 2.0M
20260507T00Z_MSC_GDPS_WindDir_IsbL-1015_LatLon0.15_PT060H.grib2 2026-05-07 04:16 2.0M
20260507T00Z_MSC_GDPS_WindGust-Max_AGL-10m_LatLon0.15_PT060H.grib2 2026-05-07 04:16 2.2M
20260507T00Z_MSC_GDPS_WindGust-Min_AGL-10m_LatLon0.15_PT060H.grib2 2026-05-07 04:16 2.2M
20260507T00Z_MSC_GDPS_WindGust_AGL-10m_LatLon0.15_PT060H.grib2 2026-05-07 04:16 2.2M
20260507T00Z_MSC_GDPS_WindSpeed_AGL-10m_LatLon0.15_PT060H.grib2 2026-05-07 04:16 1.1M
20260507T00Z_MSC_GDPS_WindSpeed_AGL-120m_LatLon0.15_PT060H.grib2 2026-05-07 04:16 1.2M
20260507T00Z_MSC_GDPS_WindSpeed_AGL-40m_LatLon0.15_PT060H.grib2 2026-05-07 04:16 1.2M
20260507T00Z_MSC_GDPS_WindSpeed_AGL-80m_LatLon0.15_PT060H.grib2 2026-05-07 04:16 1.2M
20260507T00Z_MSC_GDPS_WindSpeed_IsbL-0001_LatLon0.15_PT060H.grib2 2026-05-07 04:16 657K
20260507T00Z_MSC_GDPS_WindSpeed_IsbL-0005_LatLon0.15_PT060H.grib2 2026-05-07 04:16 703K
20260507T00Z_MSC_GDPS_WindSpeed_IsbL-0010_LatLon0.15_PT060H.grib2 2026-05-07 04:16 634K
20260507T00Z_MSC_GDPS_WindSpeed_IsbL-0020_LatLon0.15_PT060H.grib2 2026-05-07 04:16 672K
20260507T00Z_MSC_GDPS_WindSpeed_IsbL-0030_LatLon0.15_PT060H.grib2 2026-05-07 04:16 877K
20260507T00Z_MSC_GDPS_WindSpeed_IsbL-0050_LatLon0.15_PT060H.grib2 2026-05-07 04:16 910K
20260507T00Z_MSC_GDPS_WindSpeed_IsbL-0100_LatLon0.15_PT060H.grib2 2026-05-07 04:16 1.1M
20260507T00Z_MSC_GDPS_WindSpeed_IsbL-0150_LatLon0.15_PT060H.grib2 2026-05-07 04:16 948K
20260507T00Z_MSC_GDPS_WindSpeed_IsbL-0175_LatLon0.15_PT060H.grib2 2026-05-07 04:16 1.0M
20260507T00Z_MSC_GDPS_WindSpeed_IsbL-0200_LatLon0.15_PT060H.grib2 2026-05-07 04:16 1.1M
20260507T00Z_MSC_GDPS_WindSpeed_IsbL-0225_LatLon0.15_PT060H.grib2 2026-05-07 04:16 1.1M
20260507T00Z_MSC_GDPS_WindSpeed_IsbL-0250_LatLon0.15_PT060H.grib2 2026-05-07 04:16 1.1M
20260507T00Z_MSC_GDPS_WindSpeed_IsbL-0275_LatLon0.15_PT060H.grib2 2026-05-07 04:16 1.1M
20260507T00Z_MSC_GDPS_WindSpeed_IsbL-0300_LatLon0.15_PT060H.grib2 2026-05-07 04:16 1.1M
20260507T00Z_MSC_GDPS_WindSpeed_IsbL-0350_LatLon0.15_PT060H.grib2 2026-05-07 04:16 1.1M
20260507T00Z_MSC_GDPS_WindSpeed_IsbL-0400_LatLon0.15_PT060H.grib2 2026-05-07 04:16 1.1M
20260507T00Z_MSC_GDPS_WindSpeed_IsbL-0450_LatLon0.15_PT060H.grib2 2026-05-07 04:16 1.1M
20260507T00Z_MSC_GDPS_WindSpeed_IsbL-0500_LatLon0.15_PT060H.grib2 2026-05-07 04:16 1.1M
20260507T00Z_MSC_GDPS_WindSpeed_IsbL-0550_LatLon0.15_PT060H.grib2 2026-05-07 04:16 1.1M
20260507T00Z_MSC_GDPS_WindSpeed_IsbL-0600_LatLon0.15_PT060H.grib2 2026-05-07 04:16 1.1M
20260507T00Z_MSC_GDPS_WindSpeed_IsbL-0650_LatLon0.15_PT060H.grib2 2026-05-07 04:16 1.5M
20260507T00Z_MSC_GDPS_WindSpeed_IsbL-0700_LatLon0.15_PT060H.grib2 2026-05-07 04:16 1.5M
20260507T00Z_MSC_GDPS_WindSpeed_IsbL-0750_LatLon0.15_PT060H.grib2 2026-05-07 04:16 1.6M
20260507T00Z_MSC_GDPS_WindSpeed_IsbL-0800_LatLon0.15_PT060H.grib2 2026-05-07 04:16 1.7M
20260507T00Z_MSC_GDPS_WindSpeed_IsbL-0850_LatLon0.15_PT060H.grib2 2026-05-07 04:16 1.7M
20260507T00Z_MSC_GDPS_WindSpeed_IsbL-0875_LatLon0.15_PT060H.grib2 2026-05-07 04:16 1.8M
20260507T00Z_MSC_GDPS_WindSpeed_IsbL-0900_LatLon0.15_PT060H.grib2 2026-05-07 04:16 1.8M
20260507T00Z_MSC_GDPS_WindSpeed_IsbL-0925_LatLon0.15_PT060H.grib2 2026-05-07 04:16 1.9M
20260507T00Z_MSC_GDPS_WindSpeed_IsbL-0950_LatLon0.15_PT060H.grib2 2026-05-07 04:16 1.9M
20260507T00Z_MSC_GDPS_WindSpeed_IsbL-0970_LatLon0.15_PT060H.grib2 2026-05-07 04:16 1.9M
20260507T00Z_MSC_GDPS_WindSpeed_IsbL-0985_LatLon0.15_PT060H.grib2 2026-05-07 04:16 1.9M
20260507T00Z_MSC_GDPS_WindSpeed_IsbL-1000_LatLon0.15_PT060H.grib2 2026-05-07 04:16 1.9M
20260507T00Z_MSC_GDPS_WindSpeed_IsbL-1015_LatLon0.15_PT060H.grib2 2026-05-07 04:16 1.8M
20260507T00Z_MSC_GDPS_WindU_AGL-10m_LatLon0.15_PT060H.grib2 2026-05-07 04:16 1.3M
20260507T00Z_MSC_GDPS_WindU_AGL-120m_LatLon0.15_PT060H.grib2 2026-05-07 04:16 1.0M
20260507T00Z_MSC_GDPS_WindU_AGL-40m_LatLon0.15_PT060H.grib2 2026-05-07 04:16 959K
20260507T00Z_MSC_GDPS_WindU_AGL-80m_LatLon0.15_PT060H.grib2 2026-05-07 04:16 964K
20260507T00Z_MSC_GDPS_WindU_IsbL-0001_LatLon0.15_PT060H.grib2 2026-05-07 04:16 509K
20260507T00Z_MSC_GDPS_WindU_IsbL-0005_LatLon0.15_PT060H.grib2 2026-05-07 04:16 700K
20260507T00Z_MSC_GDPS_WindU_IsbL-0010_LatLon0.15_PT060H.grib2 2026-05-07 04:16 710K
20260507T00Z_MSC_GDPS_WindU_IsbL-0020_LatLon0.15_PT060H.grib2 2026-05-07 04:16 739K
20260507T00Z_MSC_GDPS_WindU_IsbL-0030_LatLon0.15_PT060H.grib2 2026-05-07 04:16 750K
20260507T00Z_MSC_GDPS_WindU_IsbL-0050_LatLon0.15_PT060H.grib2 2026-05-07 04:16 772K
20260507T00Z_MSC_GDPS_WindU_IsbL-0100_LatLon0.15_PT060H.grib2 2026-05-07 04:16 871K
20260507T00Z_MSC_GDPS_WindU_IsbL-0150_LatLon0.15_PT060H.grib2 2026-05-07 04:16 1.0M
20260507T00Z_MSC_GDPS_WindU_IsbL-0175_LatLon0.15_PT060H.grib2 2026-05-07 04:16 1.0M
20260507T00Z_MSC_GDPS_WindU_IsbL-0200_LatLon0.15_PT060H.grib2 2026-05-07 04:16 1.1M
20260507T00Z_MSC_GDPS_WindU_IsbL-0225_LatLon0.15_PT060H.grib2 2026-05-07 04:16 859K
20260507T00Z_MSC_GDPS_WindU_IsbL-0250_LatLon0.15_PT060H.grib2 2026-05-07 04:16 861K
20260507T00Z_MSC_GDPS_WindU_IsbL-0275_LatLon0.15_PT060H.grib2 2026-05-07 04:16 888K
20260507T00Z_MSC_GDPS_WindU_IsbL-0300_LatLon0.15_PT060H.grib2 2026-05-07 04:16 879K
20260507T00Z_MSC_GDPS_WindU_IsbL-0350_LatLon0.15_PT060H.grib2 2026-05-07 04:16 893K
20260507T00Z_MSC_GDPS_WindU_IsbL-0400_LatLon0.15_PT060H.grib2 2026-05-07 04:16 1.1M
20260507T00Z_MSC_GDPS_WindU_IsbL-0450_LatLon0.15_PT060H.grib2 2026-05-07 04:16 1.1M
20260507T00Z_MSC_GDPS_WindU_IsbL-0500_LatLon0.15_PT060H.grib2 2026-05-07 04:16 1.1M
20260507T00Z_MSC_GDPS_WindU_IsbL-0550_LatLon0.15_PT060H.grib2 2026-05-07 04:16 1.1M
20260507T00Z_MSC_GDPS_WindU_IsbL-0600_LatLon0.15_PT060H.grib2 2026-05-07 04:16 1.2M
20260507T00Z_MSC_GDPS_WindU_IsbL-0650_LatLon0.15_PT060H.grib2 2026-05-07 04:16 1.2M
20260507T00Z_MSC_GDPS_WindU_IsbL-0700_LatLon0.15_PT060H.grib2 2026-05-07 04:16 1.2M
20260507T00Z_MSC_GDPS_WindU_IsbL-0750_LatLon0.15_PT060H.grib2 2026-05-07 04:16 1.3M
20260507T00Z_MSC_GDPS_WindU_IsbL-0800_LatLon0.15_PT060H.grib2 2026-05-07 04:16 1.4M
20260507T00Z_MSC_GDPS_WindU_IsbL-0850_LatLon0.15_PT060H.grib2 2026-05-07 04:16 1.4M
20260507T00Z_MSC_GDPS_WindU_IsbL-0875_LatLon0.15_PT060H.grib2 2026-05-07 04:16 1.5M
20260507T00Z_MSC_GDPS_WindU_IsbL-0900_LatLon0.15_PT060H.grib2 2026-05-07 04:16 1.5M
20260507T00Z_MSC_GDPS_WindU_IsbL-0925_LatLon0.15_PT060H.grib2 2026-05-07 04:16 1.4M
20260507T00Z_MSC_GDPS_WindU_IsbL-0950_LatLon0.15_PT060H.grib2 2026-05-07 04:16 1.4M
20260507T00Z_MSC_GDPS_WindU_IsbL-0970_LatLon0.15_PT060H.grib2 2026-05-07 04:16 1.4M
20260507T00Z_MSC_GDPS_WindU_IsbL-0985_LatLon0.15_PT060H.grib2 2026-05-07 04:16 1.4M
20260507T00Z_MSC_GDPS_WindU_IsbL-1000_LatLon0.15_PT060H.grib2 2026-05-07 04:16 1.4M
20260507T00Z_MSC_GDPS_WindU_IsbL-1015_LatLon0.15_PT060H.grib2 2026-05-07 04:16 1.3M
20260507T00Z_MSC_GDPS_WindV_AGL-10m_LatLon0.15_PT060H.grib2 2026-05-07 04:16 1.3M
20260507T00Z_MSC_GDPS_WindV_AGL-120m_LatLon0.15_PT060H.grib2 2026-05-07 04:16 1.0M
20260507T00Z_MSC_GDPS_WindV_AGL-40m_LatLon0.15_PT060H.grib2 2026-05-07 04:16 961K
20260507T00Z_MSC_GDPS_WindV_AGL-80m_LatLon0.15_PT060H.grib2 2026-05-07 04:16 966K
20260507T00Z_MSC_GDPS_WindV_IsbL-0001_LatLon0.15_PT060H.grib2 2026-05-07 04:16 792K
20260507T00Z_MSC_GDPS_WindV_IsbL-0005_LatLon0.15_PT060H.grib2 2026-05-07 04:16 775K
20260507T00Z_MSC_GDPS_WindV_IsbL-0010_LatLon0.15_PT060H.grib2 2026-05-07 04:16 803K
20260507T00Z_MSC_GDPS_WindV_IsbL-0020_LatLon0.15_PT060H.grib2 2026-05-07 04:16 939K
20260507T00Z_MSC_GDPS_WindV_IsbL-0030_LatLon0.15_PT060H.grib2 2026-05-07 04:16 946K
20260507T00Z_MSC_GDPS_WindV_IsbL-0050_LatLon0.15_PT060H.grib2 2026-05-07 04:16 1.0M
20260507T00Z_MSC_GDPS_WindV_IsbL-0100_LatLon0.15_PT060H.grib2 2026-05-07 04:16 860K
20260507T00Z_MSC_GDPS_WindV_IsbL-0150_LatLon0.15_PT060H.grib2 2026-05-07 04:16 1.0M
20260507T00Z_MSC_GDPS_WindV_IsbL-0175_LatLon0.15_PT060H.grib2 2026-05-07 04:16 818K
20260507T00Z_MSC_GDPS_WindV_IsbL-0200_LatLon0.15_PT060H.grib2 2026-05-07 04:16 904K
20260507T00Z_MSC_GDPS_WindV_IsbL-0225_LatLon0.15_PT060H.grib2 2026-05-07 04:16 914K
20260507T00Z_MSC_GDPS_WindV_IsbL-0250_LatLon0.15_PT060H.grib2 2026-05-07 04:16 916K
20260507T00Z_MSC_GDPS_WindV_IsbL-0275_LatLon0.15_PT060H.grib2 2026-05-07 04:16 941K
20260507T00Z_MSC_GDPS_WindV_IsbL-0300_LatLon0.15_PT060H.grib2 2026-05-07 04:16 932K
20260507T00Z_MSC_GDPS_WindV_IsbL-0350_LatLon0.15_PT060H.grib2 2026-05-07 04:16 946K
20260507T00Z_MSC_GDPS_WindV_IsbL-0400_LatLon0.15_PT060H.grib2 2026-05-07 04:16 888K
20260507T00Z_MSC_GDPS_WindV_IsbL-0450_LatLon0.15_PT060H.grib2 2026-05-07 04:16 886K
20260507T00Z_MSC_GDPS_WindV_IsbL-0500_LatLon0.15_PT060H.grib2 2026-05-07 04:16 1.1M
20260507T00Z_MSC_GDPS_WindV_IsbL-0550_LatLon0.15_PT060H.grib2 2026-05-07 04:16 1.1M
20260507T00Z_MSC_GDPS_WindV_IsbL-0600_LatLon0.15_PT060H.grib2 2026-05-07 04:16 1.1M
20260507T00Z_MSC_GDPS_WindV_IsbL-0650_LatLon0.15_PT060H.grib2 2026-05-07 04:16 1.2M
20260507T00Z_MSC_GDPS_WindV_IsbL-0700_LatLon0.15_PT060H.grib2 2026-05-07 04:16 1.2M
20260507T00Z_MSC_GDPS_WindV_IsbL-0750_LatLon0.15_PT060H.grib2 2026-05-07 04:16 1.3M
20260507T00Z_MSC_GDPS_WindV_IsbL-0800_LatLon0.15_PT060H.grib2 2026-05-07 04:16 1.3M
20260507T00Z_MSC_GDPS_WindV_IsbL-0850_LatLon0.15_PT060H.grib2 2026-05-07 04:16 1.4M
20260507T00Z_MSC_GDPS_WindV_IsbL-0875_LatLon0.15_PT060H.grib2 2026-05-07 04:16 1.4M
20260507T00Z_MSC_GDPS_WindV_IsbL-0900_LatLon0.15_PT060H.grib2 2026-05-07 04:16 1.5M
20260507T00Z_MSC_GDPS_WindV_IsbL-0925_LatLon0.15_PT060H.grib2 2026-05-07 04:16 1.4M
20260507T00Z_MSC_GDPS_WindV_IsbL-0950_LatLon0.15_PT060H.grib2 2026-05-07 04:16 1.4M
20260507T00Z_MSC_GDPS_WindV_IsbL-0970_LatLon0.15_PT060H.grib2 2026-05-07 04:16 1.4M
20260507T00Z_MSC_GDPS_WindV_IsbL-0985_LatLon0.15_PT060H.grib2 2026-05-07 04:16 1.4M
20260507T00Z_MSC_GDPS_WindV_IsbL-1000_LatLon0.15_PT060H.grib2 2026-05-07 04:16 1.4M
20260507T00Z_MSC_GDPS_WindV_IsbL-1015_LatLon0.15_PT060H.grib2 2026-05-07 04:16 1.3M